Wind_Speed
19 19 19 19 19 24 18 16 18 19 16 19 22 26 21 22 27 28 26 26 26 28 31 35 41 48 51 53 55 55 56 55 52 53 53 54 55 57 65 70 71 71 71 70 68 64 64 63 62
24 28 23 17 18 23 24 24 19 20 23 23 22 25 27 27 28 28 29 28 30 31 33 35 38 43 50 52 55 58 58 59 59 59 60 58 56 56 58 61 67 73 75 74 73 71 69 67 66
25 25 28 26 15 21 22 23 26 22 23 22 23 24 25 26 26 28 31 30 32 35 35 34 36 37 40 48 57 59 59 61 64 65 62 63 64 62 59 61 63 65 70 76 78 78 75 72 71
22 27 25 28 27 22 29 23 23 25 27 28 26 24 26 27 28 28 31 32 34 36 37 39 39 38 35 36 43 52 61 64 66 67 67 67 68 69 67 64 65 67 69 70 72 79 77 76 77
24 26 27 24 23 26 29 28 28 27 28 32 29 25 27 29 31 30 32 35 36 38 39 41 42 43 46 41 37 40 47 57 66 69 70 69 70 72 72 71 69 70 71 71 71 70 73 78 79
19 23 26 29 28 28 32 36 33 28 29 33 32 29 28 29 30 33 34 37 39 39 40 43 46 49 51 52 48 40 42 46 52 62 69 73 76 77 77 76 76 75 74 73 71 71 71 71 76
24 21 27 27 32 31 33 36 39 39 36 33 31 30 31 31 33 34 36 41 42 43 44 49 50 51 53 56 56 45 40 43 48 51 56 61 68 72 75 78 78 78 79 79 78 74 72 74 74
25 24 26 29 29 31 34 35 40 40 35 36 38 33 32 34 35 36 38 42 47 49 50 49 52 55 58 59 61 49 42 42 45 50 52 55 58 61 65 70 75 77 80 81 81 81 80 76 76
25 28 28 30 31 32 34 36 42 40 39 41 38 40 34 36 38 40 41 43 45 47 52 51 54 57 62 62 65 53 43 42 44 46 50 53 55 56 58 61 65 68 73 75 78 79 80 80 78
28 29 30 33 33 35 36 37 41 44 43 44 41 43 39 39 42 43 44 46 49 51 51 53 55 60 64 66 68 56 45 41 43 46 48 49 51 53 56 58 61 60 62 64 67 70 75 79 81
30 31 33 32 34 36 39 40 44 44 44 45 43 44 42 42 45 47 50 53 53 53 52 55 59 61 65 66 68 58 48 43 43 45 46 47 48 48 50 54 54 54 53 58 63 67 68 72 76
32 32 34 34 36 37 38 41 44 46 46 47 45 44 42 43 46 50 51 52 54 53 53 56 61 64 67 69 68 59 49 46 45 46 47 48 48 48 49 50 51 54 56 55 59 64 67 69 72
36 36 35 39 39 41 42 43 47 47 47 52 52 45 43 43 48 51 54 53 56 54 55 58 62 67 70 70 70 60 52 48 46 45 47 49 49 50 49 50 52 54 55 58 61 65 67 67 67
41 40 39 42 41 43 46 43 49 50 50 51 52 48 46 46 49 53 55 55 56 55 56 59 63 67 71 73 72 62 56 53 50 48 48 48 51 52 51 52 53 54 57 58 63 65 65 66 65
44 43 44 46 42 43 46 47 48 52 53 54 51 52 43 46 47 51 54 57 55 54 57 61 65 69 72 74 72 63 58 56 54 51 51 51 52 53 53 52 54 55 54 57 60 64 66 64 63
46 47 48 48 44 45 47 52 49 55 56 55 56 51 46 48 48 52 53 54 55 56 60 64 67 71 73 75 74 65 61 59 56 54 54 55 54 53 53 56 55 54 53 56 57 59 58 58 59
49 49 49 50 46 46 47 53 52 57 58 57 56 49 51 48 46 51 56 58 61 65 66 66 68 73 75 77 74 67 65 60 58 58 58 58 56 56 56 54 52 50 51 52 49 48 49 49 46
53 51 52 52 49 49 49 54 53 57 62 59 57 54 50 46 44 50 55 58 63 65 68 66 69 72 76 80 73 67 63 62 61 61 60 59 57 54 52 49 46 45 46 43 40 42 45 39 40
58 55 54 51 52 52 52 56 56 58 59 61 57 55 55 44 44 50 55 59 63 65 66 65 69 72 77 83 71 66 63 63 62 62 62 59 54 51 47 44 42 40 37 33 34 36 39 35 40
60 58 58 55 54 54 55 60 58 59 60 60 59 58 56 45 44 50 55 59 63 64 63 65 70 72 77 80 68 66 64 63 64 62 57 53 48 44 40 39 37 30 27 26 30 33 31 32 33
61 62 59 57 58 57 57 63 61 59 62 62 62 61 48 43 43 48 55 60 61 62 63 65 70 73 79 72 66 64 64 62 63 61 50 46 40 38 32 32 26 22 21 23 27 27 26 31 34
67 65 62 61 60 61 61 64 63 59 59 62 61 54 44 44 44 50 56 59 57 58 62 65 70 72 79 74 67 63 62 61 61 55 45 43 37 29 23 22 21 15 19 25 29 33 36 36 37
73 69 65 65 64 64 67 60 61 60 61 61 57 51 41 41 46 50 51 53 55 57 60 65 70 72 79 77 66 63 60 58 56 50 42 38 31 23 17 15 11 17 18 22 30 38 41 40 38
79 77 74 70 70 69 66 63 63 59 59 56 54 45 38 39 44 48 52 52 57 56 60 64 69 72 79 75 63 61 59 58 54 50 38 33 25 16 7 4 10 12 17 28 34 36 39 41 43
83 81 79 76 73 70 68 64 63 58 56 53 49 44 37 39 49 50 53 58 55 55 58 62 67 71 78 77 61 59 58 57 52 46 33 27 22 16 9 6 10 17 20 25 33 35 37 40 40
88 84 81 76 73 71 67 63 61 56 55 54 47 38 35 38 44 48 53 51 52 53 56 60 65 69 75 73 58 57 57 57 48 42 33 25 22 20 17 11 13 16 21 24 27 23 32 44 39
88 85 79 75 74 71 67 61 59 56 58 56 45 36 34 38 43 48 52 47 48 51 54 57 62 67 73 67 53 52 56 55 50 41 34 25 22 23 17 14 16 18 21 24 26 29 36 43 42
89 86 85 79 75 69 63 58 55 62 60 49 40 36 42 40 40 45 43 45 47 49 53 55 60 65 71 62 50 48 53 53 49 42 34 24 25 26 25 23 22 22 23 25 26 38 39 48 53
93 93 89 84 77 70 63 60 64 65 55 42 36 36 42 45 47 42 44 45 46 47 50 52 57 62 66 56 45 42 48 52 54 45 35 26 28 32 30 27 25 24 27 29 27 39 25 22 30
90 84 85 85 79 73 70 63 65 61 56 49 36 36 34 44 48 45 48 46 45 47 46 49 54 58 61 58 41 37 41 47 51 47 37 30 33 36 30 29 24 28 24 33 32 30 25 33 28
Wind_Direction
30 21 7 1 4 10 13 1 358 1 340 331 332 331 327 326 323 322 318 315 313 313 303 289 281 278 277 274 271 271 273 274 272 270 269 267 264 260 256 254 254 253 253 254 252 252 250 249 252
16 27 15 4 1 359 0 356 352 349 349 339 332 325 324 318 315 318 317 309 309 308 307 308 295 282 273 269 269 269 269 266 265 267 268 266 264 264 261 256 253 253 252 251 251 249 249 249 248
6 5 3 6 351 355 351 346 342 343 345 333 333 330 328 324 321 322 323 320 313 314 311 313 312 299 287 275 268 266 265 264 265 266 266 267 266 263 262 260 258 255 253 251 251 249 248 248 249
354 356 358 7 7 0 0 340 325 334 335 340 337 335 332 332 331 327 326 321 314 315 319 321 321 316 314 296 279 270 264 264 265 266 266 264 264 264 264 261 258 258 257 256 254 251 249 250 248
338 341 348 353 10 356 356 350 338 327 327 332 328 331 329 334 334 330 328 327 325 322 324 326 330 333 331 329 310 285 273 266 262 262 262 262 262 263 265 265 263 260 259 259 258 257 253 247 249
327 333 337 345 356 354 353 358 351 335 323 323 326 328 326 329 331 332 331 334 332 329 329 334 336 334 336 335 330 308 289 279 271 266 262 262 261 263 265 265 265 262 261 261 260 258 256 253 249
335 329 324 337 341 351 351 352 353 350 343 320 320 325 323 321 324 329 332 332 333 333 333 337 337 335 335 336 334 322 300 287 279 274 270 266 264 263 263 263 262 261 261 260 261 261 257 254 253
323 333 329 329 340 343 345 348 349 348 340 326 325 325 320 324 323 323 328 329 331 332 333 336 335 336 335 336 336 327 308 292 283 278 276 274 272 270 269 265 263 262 262 262 261 261 259 255 251
306 324 327 325 326 340 344 342 347 347 343 337 323 320 322 322 321 323 321 325 327 330 329 333 335 334 335 336 335 328 314 299 288 280 278 277 276 274 273 271 269 266 266 264 262 260 259 258 255
308 311 315 321 327 330 334 337 340 345 339 344 327 317 319 316 318 319 318 320 323 325 328 330 333 335 333 335 334 329 317 302 292 282 279 277 276 275 274 271 271 270 268 267 265 262 261 258 255
301 308 317 321 322 325 327 330 334 339 338 340 335 320 316 315 317 318 319 319 319 321 326 329 333 333 333 333 332 328 319 308 298 290 286 285 284 283 281 276 275 273 268 266 264 263 260 258 254
300 304 313 317 323 324 326 328 331 334 334 335 334 321 313 314 319 315 315 317 317 319 325 329 330 331 333 332 332 328 320 311 303 296 291 288 288 287 283 280 278 274 272 269 268 267 263 259 257
297 301 310 314 317 320 320 325 327 329 330 332 337 323 312 315 314 312 313 315 316 319 324 327 329 331 332 333 332 328 320 313 306 300 294 292 292 290 289 285 281 279 276 273 269 266 263 259 256
296 296 301 309 312 318 318 319 324 325 325 329 332 331 317 315 314 313 313 315 315 319 324 326 329 330 332 333 332 328 322 315 310 306 302 300 298 296 294 288 286 281 275 273 269 266 264 260 254
291 293 296 306 306 314 319 317 322 320 321 326 328 331 315 316 312 312 312 312 314 319 324 326 327 328 330 332 333 328 323 317 314 310 307 305 301 297 293 290 285 282 278 273 267 265 262 257 252
286 294 296 299 303 306 315 315 321 316 317 322 323 324 319 320 308 309 311 313 316 321 323 324 326 327 328 332 333 329 323 320 317 313 309 306 303 298 293 290 286 282 277 270 266 263 260 255 252
286 287 294 297 299 303 310 309 318 314 315 319 322 321 319 320 310 306 307 312 314 317 320 321 324 329 331 332 332 330 328 323 318 315 312 308 303 297 293 289 286 280 275 270 266 262 255 249 246
281 285 293 292 296 302 306 306 313 312 313 316 319 322 317 316 309 306 308 311 311 315 315 320 324 328 332 334 334 331 328 323 322 317 312 307 302 296 292 288 284 277 272 270 263 253 249 244 238
280 283 287 292 294 299 303 304 309 310 310 314 319 320 319 311 307 307 308 308 311 314 316 319 325 330 334 334 334 331 329 327 324 319 314 309 304 298 292 287 279 273 269 265 254 243 237 230 228
278 280 284 290 292 295 300 300 306 308 307 313 317 319 315 306 309 306 306 309 314 314 317 322 328 331 335 335 335 332 332 330 327 321 320 312 307 300 291 281 271 267 263 250 233 231 229 211 208
277 277 283 287 290 292 296 298 303 304 306 310 315 316 307 305 305 304 307 310 312 316 321 326 330 332 336 339 335 334 334 332 330 328 326 322 311 303 291 274 267 262 244 223 213 206 192 191 189
276 278 279 284 287 288 292 297 300 301 305 310 312 313 304 301 304 303 306 308 313 319 325 327 330 335 340 343 337 334 337 337 333 333 337 332 325 316 292 270 264 241 210 202 193 187 184 185 187
274 278 279 282 286 286 290 292 297 300 303 307 309 310 300 299 299 301 304 309 316 320 325 328 331 338 342 344 337 337 340 343 340 341 343 339 331 323 298 274 247 209 205 197 192 184 182 179 173
273 277 279 282 285 287 289 294 294 298 303 306 306 304 296 295 296 300 305 308 314 319 325 331 332 339 344 344 340 340 344 348 347 350 347 348 345 349 328 260 192 198 184 177 179 180 181 180 171
272 275 279 284 286 287 288 294 293 297 303 304 304 300 292 291 290 296 300 305 311 320 327 331 334 340 345 345 342 344 348 354 350 354 353 357 14 30 42 109 154 168 175 180 177 179 187 176 174
272 276 280 281 284 286 289 293 292 296 300 302 300 292 285 288 291 294 299 307 312 322 327 333 335 340 344 346 344 347 353 358 354 2 359 3 26 47 59 93 138 153 160 165 171 178 169 160 165
273 275 277 280 283 283 289 291 291 294 299 301 296 282 278 284 290 293 300 308 316 323 328 333 334 340 344 349 346 351 356 3 359 8 9 13 42 61 73 104 122 139 146 151 156 159 162 157 155
272 273 277 280 284 284 289 290 288 295 302 297 295 279 272 280 292 296 300 307 316 323 329 332 336 341 343 350 347 355 358 6 8 12 14 37 60 74 85 101 118 130 136 133 147 162 164 163 159
274 276 279 281 284 284 285 287 291 296 299 293 288 273 270 275 282 293 300 304 313 322 328 332 336 341 345 352 351 359 1 7 13 23 31 57 75 83 90 107 126 138 148 145 148 152 137 157 175
275 276 278 281 280 280 285 289 288 287 290 290 285 279 275 274 278 286 294 302 310 318 326 332 335 342 345 351 352 3 5 9 16 22 36 70 85 88 95 104 112 110 131 155 149 159 131 116 120
Height
10826 10823 10820 10818 10816 10813 10809 10807 10804 10801 10799 10795 10791 10788 10785 10782 10779 10778 10775 10772 10768 10764 10760 10755 10752 10748 10744 10741 10739 10736 10734 10732 10730 10729 10727 10727 10728 10729 10730 10731 10731 10732 10734 10737 10741 10745 10746 10748 10748
10825 10822 10819 10817 10815 10812 10809 10807 10804 10801 10797 10793 10790 10788 10784 10780 10775 10772 10769 10766 10763 10759 10754 10749 10744 10738 10734 10730 10727 10724 10722 10721 10719 10717 10715 10715 10715 10716 10716 10716 10717 10718 10720 10723 10727 10732 10734 10736 10739
10824 10822 10819 10815 10813 10811 10808 10806 10803 10800 10796 10792 10789 10785 10781 10778 10773 10768 10764 10760 10756 10752 10747 10743 10737 10731 10725 10720 10716 10713 10711 10708 10706 10705 10704 10703 10703 10703 10703 10703 10703 10704 10705 10708 10712 10716 10721 10724 10728
10822 10821 10818 10815 10812 10809 10806 10803 10800 10798 10794 10791 10786 10782 10778 10775 10770 10764 10759 10756 10751 10745 10739 10733 10727 10721 10716 10709 10704 10700 10698 10695 10693 10691 10691 10691 10690 10690 10689 10690 10690 10691 10692 10695 10698 10702 10709 10713 10716
10821 10818 10816 10814 10811 10808 10804 10801 10797 10794 10791 10787 10784 10779 10774 10770 10766 10761 10756 10750 10744 10738 10732 10725 10719 10712 10706 10699 10694 10689 10685 10682 10680 10679 10678 10677 10676 10675 10675 10677 10678 10678 10679 10680 10683 10688 10692 10699 10701
10817 10815 10814 10812 10809 10806 10802 10798 10794 10791 10787 10783 10779 10775 10771 10766 10761 10756 10750 10744 10739 10732 10725 10718 10711 10703 10696 10689 10683 10677 10673 10669 10666 10664 10663 10662 10661 10660 10660 10661 10662 10663 10665 10665 10668 10672 10677 10680 10685
10815 10812 10810 10808 10806 10803 10800 10796 10790 10787 10784 10779 10775 10772 10766 10760 10755 10750 10744 10737 10731 10725 10717 10710 10704 10696 10689 10681 10673 10666 10660 10657 10653 10650 10648 10647 10646 10645 10646 10645 10645 10645 10647 10648 10650 10655 10659 10663 10668
10811 10809 10806 10804 10803 10800 10796 10793 10789 10783 10778 10774 10770 10768 10763 10757 10750 10745 10738 10732 10724 10718 10710 10704 10696 10688 10680 10673 10665 10657 10650 10644 10641 10639 10636 10633 10631 10630 10630 10630 10629 10630 10630 10632 10634 10636 10638 10645 10650
10807 10805 10803 10800 10797 10795 10792 10788 10784 10780 10775 10769 10764 10761 10758 10753 10746 10740 10734 10726 10720 10713 10705 10698 10690 10682 10673 10664 10656 10647 10640 10635 10631 10628 10624 10621 10619 10617 10616 10615 10613 10613 10614 10615 10616 10619 10620 10625 10630
10802 10801 10799 10796 10792 10789 10787 10784 10780 10775 10770 10766 10759 10755 10753 10747 10741 10735 10728 10720 10713 10706 10698 10690 10683 10675 10664 10654 10645 10637 10630 10626 10622 10617 10613 10610 10608 10604 10601 10599 10598 10598 10599 10598 10597 10598 10601 10604 10610
10797 10796 10794 10792 10788 10784 10781 10778 10775 10771 10766 10761 10755 10748 10745 10740 10735 10728 10721 10714 10707 10700 10692 10684 10676 10667 10658 10647 10637 10627 10618 10613 10608 10604 10600 10596 10593 10590 10587 10584 10583 10581 10582 10581 10579 10578 10581 10583 10587
10792 10791 10788 10787 10784 10780 10777 10773 10770 10765 10761 10756 10751 10744 10740 10735 10730 10723 10717 10710 10702 10694 10685 10676 10667 10658 10648 10637 10626 10616 10606 10600 10595 10590 10587 10582 10579 10575 10572 10569 10567 10564 10563 10564 10562 10559 10560 10563 10565
10786 10785 10782 10781 10780 10775 10772 10768 10764 10761 10754 10748 10745 10740 10734 10730 10725 10719 10713 10704 10696 10688 10679 10669 10659 10649 10639 10628 10616 10606 10597 10590 10584 10578 10573 10569 10565 10560 10556 10553 10549 10547 10546 10543 10541 10539 10537 10542 10546
10780 10779 10777 10775 10774 10770 10767 10764 10759 10755 10750 10744 10739 10734 10728 10722 10717 10711 10704 10698 10690 10681 10672 10662 10652 10642 10630 10618 10606 10593 10585 10577 10571 10565 10559 10555 10549 10542 10538 10534 10531 10528 10526 10525 10519 10518 10518 10521 10525
10773 10771 10770 10769 10767 10764 10761 10759 10756 10748 10744 10739 10732 10728 10723 10717 10710 10704 10698 10691 10683 10675 10666 10656 10646 10634 10622 10609 10596 10585 10575 10565 10558 10551 10544 10538 10532 10524 10519 10515 10511 10508 10506 10503 10499 10496 10495 10499 10505
10764 10763 10763 10761 10760 10758 10755 10749 10753 10743 10737 10734 10727 10721 10717 10711 10705 10699 10691 10684 10676 10667 10659 10650 10639 10627 10614 10599 10586 10573 10562 10553 10545 10537 10529 10520 10513 10506 10500 10495 10490 10487 10484 10480 10477 10478 10478 10482 10488
10755 10755 10754 10753 10752 10750 10749 10741 10745 10736 10731 10727 10721 10715 10710 10705 10698 10692 10686 10677 10668 10661 10652 10642 10630 10617 10604 10590 10576 10563 10552 10543 10532 10522 10513 10502 10493 10485 10480 10474 10470 10466 10462 10462 10462 10462 10463 10469 10477
10747 10747 10745 10745 10744 10742 10741 10734 10737 10731 10722 10720 10715 10708 10704 10700 10694 10686 10677 10671 10662 10654 10645 10634 10621 10610 10595 10581 10566 10553 10542 10530 10520 10506 10494 10484 10474 10466 10460 10455 10451 10447 10445 10447 10448 10448 10447 10458 10466
10737 10738 10736 10736 10735 10733 10732 10727 10727 10725 10715 10710 10706 10703 10697 10691 10685 10678 10672 10664 10655 10646 10637 10627 10615 10601 10586 10571 10558 10542 10530 10518 10504 10491 10478 10466 10456 10448 10442 10438 10433 10431 10433 10435 10435 10438 10443 10452 10460
10729 10728 10727 10727 10727 10726 10723 10717 10719 10715 10710 10704 10698 10694 10688 10683 10677 10671 10664 10656 10648 10640 10630 10619 10608 10593 10578 10563 10547 10531 10518 10506 10492 10476 10463 10449 10438 10430 10426 10421 10418 10422 10424 10425 10427 10432 10443 10449 10457
10718 10718 10718 10719 10718 10717 10716 10708 10709 10706 10699 10695 10691 10686 10681 10676 10670 10663 10655 10648 10641 10633 10622 10611 10600 10587 10572 10554 10536 10523 10512 10497 10481 10464 10449 10435 10425 10417 10412 10407 10411 10415 10415 10418 10423 10430 10439 10446 10452
10706 10706 10708 10709 10708 10707 10705 10703 10698 10697 10692 10688 10683 10677 10673 10669 10662 10655 10649 10642 10636 10626 10616 10606 10595 10581 10564 10547 10530 10518 10506 10489 10471 10454 10439 10427 10415 10408 10403 10401 10405 10409 10411 10414 10420 10429 10435 10444 10450
10693 10694 10696 10698 10699 10698 10692 10696 10685 10687 10683 10679 10676 10670 10666 10661 10655 10649 10643 10637 10631 10622 10612 10601 10587 10574 10558 10541 10527 10513 10501 10483 10465 10448 10435 10422 10411 10402 10397 10397 10401 10404 10409 10413 10420 10426 10434 10444 10454
10679 10679 10683 10686 10688 10689 10681 10684 10674 10675 10673 10670 10668 10664 10660 10654 10649 10643 10639 10632 10626 10618 10606 10595 10581 10568 10554 10538 10523 10509 10496 10477 10459 10445 10432 10420 10410 10402 10397 10399 10401 10404 10410 10417 10423 10429 10438 10447 10458
10662 10665 10669 10673 10673 10676 10672 10672 10664 10665 10662 10660 10658 10655 10652 10646 10640 10635 10631 10627 10621 10612 10601 10590 10577 10566 10552 10535 10520 10506 10493 10475 10458 10444 10432 10421 10412 10406 10402 10403 10406 10410 10415 10422 10430 10433 10441 10452 10462
10647 10651 10653 10657 10659 10662 10662 10661 10651 10654 10651 10650 10648 10647 10643 10638 10633 10630 10624 10621 10614 10606 10597 10587 10575 10563 10550 10532 10518 10506 10492 10475 10458 10445 10433 10424 10416 10412 10410 10409 10414 10420 10425 10429 10436 10443 10452 10464 10473
10633 10635 10635 10642 10646 10649 10651 10646 10640 10641 10641 10639 10638 10637 10635 10632 10626 10623 10618 10614 10608 10601 10594 10584 10573 10562 10548 10532 10519 10507 10493 10478 10460 10448 10439 10429 10424 10421 10421 10420 10424 10429 10434 10440 10445 10453 10464 10474 10482
10612 10615 10620 10625 10631 10635 10639 10635 10626 10628 10630 10630 10629 10628 10627 10624 10619 10616 10612 10608 10603 10597 10591 10581 10571 10560 10547 10532 10521 10509 10496 10484 10468 10454 10443 10435 10433 10432 10431 10432 10435 10440 10444 10449 10456 10466 10475 10485 10492
10591 10598 10598 10603 10614 10618 10624 10626 10614 10613 10617 10620 10621 10620 10619 10616 10612 10609 10606 10603 10598 10594 10587 10578 10569 10559 10549 10535 10524 10513 10501 10490 10475 10463 10452 10445 10444 10444 10445 10447 10449 10453 10458 10464 10471 10478 10488 10498 10502
10574 10579 10579 10582 10593 10601 10609 10617 10604 10597 10604 10609 10612 10611 10611 10608 10604 10602 10601 10597 10594 10590 10583 10576 10568 10559 10551 10538 10528 10518 10508 10497 10488 10476 10467 10459 10456 10458 10458 10460 10463 10468 10472 10477 10484 10490 10497 10499 10504